Regional Weather Roundup
Issued by NWS

Home | Current Version | Previous Version | Graphics & Text | Print | Product List | Glossary On
Versions: 1 2 3 4 5 6 7 8 9 10 11 12 13 14 15 16 17 18 19 20 21 22 23 24 25 26 27 28 29 30 31 32 33 34 35 36 37 38 39 40 41 42 43 44 45 46 47 48 49 50
452
ASUS45 KTFX 241210
RWRMT
MONTANA REGIONAL WEATHER ROUNDUP
NATIONAL WEATHER SERVICE GREAT FALLS MT
600 AM MDT SAT SEP 24 2016

NOTE: "FAIR" INDICATES FEW OR NO CLOUDS BELOW 12000 FEET WITH NO
SIGNIFICANT WEATHER AND/OR OBSTRUCTIONS TO VISIBILITY.

MTZ001>007-043-241300-
WEST OF THE DIVIDE

CITY           SKY/WX    TMP DP  RH WIND       PRES   REMARKS
KALISPELL      CLOUDY    48  44  86 CALM      30.15R
MISSOULA       CLOUDY    51  41  68 N6        30.17R
BUTTE          CLOUDY    43  37  79 NW6       30.10R
MULLAN PASS    LGT RAIN  37  37 100 VRB6      30.19R VSB 1/4
ANACONDA         N/A     45  37  76 NW3       30.11R
DEER LODGE       N/A     48  37  66 NW14G23   30.12S
EUREKA           N/A     52  37  58 SE8       30.12R
HAMILTON         N/A     48  39  71 SE5       30.17R
LIBBY            N/A     45  41  87 CALM      30.14R
PLAINS           N/A     49  43  80 CALM      30.18R
$$

MTZ008-052>055-241300-
SOUTHWEST MONTANA

CITY           SKY/WX    TMP DP  RH WIND       PRES   REMARKS
BOZEMAN        CLOUDY    47  42  83 S5        30.06R
DILLON         CLOUDY    44  39  82 E7        30.07R
W YELLOWSTONE    N/A     39  37  93 CALM      30.06R
ENNIS          CLOUDY    46  39  76 N5        30.11R
THREE FORKS      N/A     50  27  41 CALM      30.03R
TWIN BRIDGES     N/A     46  37  70 S5        30.06R
$$

MTZ009-010-012-014-046-048-049-054-241300-
EAST SLOPES AND CENTRAL MONTANA

CITY           SKY/WX    TMP DP  RH WIND       PRES   REMARKS
CUT BANK       CLEAR     46  37  71 W15       29.99R
GREAT FALLS    CLEAR     44  38  79 SW13      29.96S
MALMSTROM AFB  PTCLDY    47  40  74 W9        29.96R
HELENA         CLOUDY    51  39  63 W10       30.03R
AUGUSTA          N/A     46  36  68 NW13      29.98R
BOWMANS CRNR     N/A     43  37  78 S7        29.99R
CHOTEAU          N/A     50  37  62 W12G17    29.99S
CONRAD           N/A     49  42  76 W10       30.00R
FAIRFIELD        N/A     43  36  75 SW1       29.97R
POWER            N/A     36  35  95 W9        29.97R WCI  29
RAYNESFORD     PTSUNNY   51  38  60 SW17G23   29.97R
$$

MTZ011-013-016-021-045-047-050-051-241300-
NORTH CENTRAL MONTANA

CITY           SKY/WX    TMP DP  RH WIND       PRES   REMARKS
HAVRE          CLEAR     46  42  86 SW10      29.91R
LEWISTOWN      CLOUDY    46  39  76 W9        29.95S
N BAR RANCH    CLOUDY    48  37  66 NW17      29.95R
CHINOOK          N/A     43  41  93 W3        29.90R
DENTON           N/A     44  39  83 W8        29.92R
GEYSER           N/A     46  36  68 NW13      29.98R
GRASS RANGE    PTSUNNY   49  40  69 W18       29.90S
JUDITH GAP     PTSUNNY   42  38  84 N9        29.95R
ROY            PTSUNNY   49  42  76 MISG      29.91R
STANFORD       PTSUNNY   45  38  75 NW13      29.95S
WINIFRED         N/A     46  40  82 MISG      29.94R
$$

MTZ017>020-022>027-061-062-241300-
NORTHEAST MONTANA

CITY           SKY/WX    TMP DP  RH WIND       PRES   REMARKS
GLASGOW        CLOUDY    47  47 100 W14       29.85F FOG
JORDAN           N/A     49  47  93 NW6       29.84S
SIDNEY         CLOUDY    54  53  97 N5        29.81R
WOLF POINT     CLOUDY    54  51  90 N8        29.82F
PLENTYWOOD       N/A     54  54 100 N9        29.81F
POPLAR           N/A     54  52  94 NW12      29.80F
SCOBEY           N/A     51  48  89 CALM      29.85R
$$

MTZ028>42-056>058-241300-
SOUTHCENTRAL AND SOUTHEAST MONTANA

CITY           SKY/WX    TMP DP  RH WIND       PRES   REMARKS
BAKER          CLOUDY    52  50  93 N13       29.78F FOG
BILLINGS       LGT RAIN  50  45  83 NW13      29.91R
LIVINGSTON     CLOUDY    49  40  71 W18       30.00F
MILES CITY     LGT RAIN  51  49  92 N5        29.81R
BIG TIMBER     MOCLDY    50  37  62 W16G25    29.99R
FORSYTH          N/A     52  52 100 NW3       29.81S
HARLOWTON      PTSUNNY   47  39  75 W21G29    29.95S
LAUREL           N/A     51  42  71 NW2       29.93R
ROUNDUP          N/A     54  40  59 NW12      29.82S
$$

REGIONAL REPORTS...DAKOTAS

CITY           SKY/WX    TMP DP  RH WIND       PRES   REMARKS
WILLISTON      CLOUDY    55  54  96 NW6       29.79F
MINOT          FOG       60  60 100 N7        29.76F VSB 1/4
DICKINSON      LGT RAIN  56  56 100 NE7       29.74S VSB 1/2
CROSBY         FOG       54  54 100 SE3       29.85R VSB 1/2
WATFORD CITY   CLOUDY    55  55 100 NW7       29.79R
BISMARCK       MOCLDY    61  60  97 NE9       29.75S
GRAND FORKS    CLOUDY    63  60  90 SE16      29.89F
FARGO          CLOUDY    68  64  87 SE18G29   29.89F
BUFFALO SD       N/A     57  55  93 N12       29.65F
RAPID CITY     CLOUDY    56  53  90 SW5       29.77F
$$

REGIONAL REPORTS...WYOMING/IDAHO/WASHINGTON

CITY           SKY/WX    TMP DP  RH WIND       PRES   REMARKS
GILLETTE       LGT RAIN  47  46  97 NW12      29.84S
SHERIDAN       LGT RAIN  50  48  93 NW9       29.88R
BUFFALO WY     RAIN      47  43  86 NW15G26   29.88S FOG
CODY           RAIN      46  44  93 N12       29.96R
YELLOWSTONE LA   N/A     37  34  89 CALM      30.07R
IDAHO FALLS    CLOUDY    44  41  89 S8        30.07R
SALMON         CLOUDY    45  41  87 SW3       30.15R
BOISE          CLEAR     50  42  74 NW8       30.19R
SPOKANE        MOCLDY    44  40  85 S6        30.19R
$$

REGIONAL REPORTS...ALBERTA

CITY           SKY/WX    TMP DP  RH WIND       PRES   REMARKS
EDMONTON       LGT RAIN  48  46  93 W9        29.94R
CALGARY        LGT RAIN  50  39  66 N8        29.97R
LETHBRIDGE     MOCLDY    52  37  58 W22G29    29.96R
MEDICINE HAT   PTCLDY    46  41  81 SW7       29.88R
WATERTON GATE    N/A     48  34  57 SW13G18     N/A
CARDSTON         N/A     48  34  57 W13G22      N/A
MILK RIVER       N/A     45  37  76 W17G23      N/A
ONEFOUR          N/A     46  39  76 NW17        N/A
$$

REGIONAL REPORTS...SASKATCHEWAN

CITY           SKY/WX    TMP DP  RH WIND       PRES   REMARKS
SWIFT CURRENT  MOCLDY    43  43 100 W8        29.85R
REGINA         LGT RAIN  52  52 100 S3        29.84S VSB 1
SASKATOON      FOG       50  50 100 W5        29.88R VSB 1/4
CYPRESS HILLS    N/A     45  36  70 NW7         N/A
VAL MARIE        N/A     43  43 100 CALM        N/A
ROCKGLEN         N/A     46  46 100 N3          N/A
ASSINIBOIA       N/A     45  45 100 W8          N/A
$$




USA.gov is the U.S. government's official web portal to all federal, state and local government web resources and services.